BAW1409 EGCC-LESO

Flight info

Callsign BAW1409
Flight time 1h 38m
Altitude 23000
Route KUXEM P17 BEPHE/N0463F360 DCT OSSEP DCT ELNIF DCT ZESPE DCT KLAKI DCT SALCO/N0457F350 DCT NENEM DCT BADRU P152 PODUX T430 DITOP N10 SSN
Aircraft A320/M-SDE3FGHIRWY/LB1

Departure

Time 2026-04-15 15:46
Airport Manchester Airport (EGCC)

Arrival

Time 2026-04-15 17:24
Airport San Sebastián Airport (LESO)
Time Latitude Longitude Altitude Speed Heading
2026-04-15 15:20 53.36078 -2.27504 255 ft 0 kts 96°
2026-04-15 15:33 53.36079 -2.27520 255 ft 3 kts 96°
2026-04-15 15:33 53.36081 -2.27549 255 ft 3 kts 96°
2026-04-15 15:34 53.36083 -2.27578 255 ft 2 kts 96°
2026-04-15 15:34 53.36084 -2.27606 255 ft 2 kts 96°
2026-04-15 15:34 53.36087 -2.27635 255 ft 2 kts 80°
2026-04-15 15:34 53.36084 -2.27662 255 ft 2 kts 93°
2026-04-15 15:35 53.36084 -2.27670 255 ft 0 kts 106°
2026-04-15 15:37 53.36078 -2.27647 255 ft 4 kts 117°
2026-04-15 15:38 53.36044 -2.27624 255 ft 7 kts 172°
2026-04-15 15:38 53.35988 -2.27630 255 ft 9 kts 186°
2026-04-15 15:38 53.35917 -2.27643 255 ft 11 kts 186°
2026-04-15 15:38 53.35835 -2.27659 255 ft 12 kts 186°
2026-04-15 15:39 53.35733 -2.27644 249 ft 17 kts 158°
2026-04-15 15:39 53.35642 -2.27553 246 ft 17 kts 139°
2026-04-15 15:39 53.35650 -2.27393 249 ft 14 kts 51°
2026-04-15 15:39 53.35694 -2.27301 255 ft 8 kts 51°
2026-04-15 15:40 53.35734 -2.27217 255 ft 10 kts 52°
2026-04-15 15:40 53.35786 -2.27110 255 ft 15 kts 50°
2026-04-15 15:40 53.35855 -2.26933 256 ft 20 kts 55°
2026-04-15 15:40 53.35945 -2.26725 256 ft 24 kts 54°
2026-04-15 15:41 53.36058 -2.26491 256 ft 28 kts 51°
2026-04-15 15:41 53.36178 -2.26256 255 ft 23 kts 33°
2026-04-15 15:41 53.36269 -2.26101 255 ft 17 kts 67°
2026-04-15 15:41 53.36268 -2.26017 255 ft 1 kts 98°
2026-04-15 15:42 53.36266 -2.25999 255 ft 1 kts 98°
2026-04-15 15:42 53.36266 -2.25997 255 ft 1 kts 98°
2026-04-15 15:42 53.36266 -2.25982 255 ft 2 kts 81°
2026-04-15 15:42 53.36269 -2.25976 255 ft 0 kts 63°
2026-04-15 15:44 53.36275 -2.25955 255 ft 6 kts 63°
2026-04-15 15:44 53.36288 -2.25843 256 ft 15 kts 99°
2026-04-15 15:45 53.36212 -2.25767 260 ft 16 kts 207°
2026-04-15 15:45 53.36124 -2.25943 258 ft 29 kts 231°
2026-04-15 15:45 53.35865 -2.26478 270 ft 98 kts 232°
2026-04-15 15:45 53.35287 -2.27678 288 ft 160 kts 230°
2026-04-15 15:46 53.34563 -2.29213 922 ft 176 kts 229°
2026-04-15 15:46 53.33776 -2.30857 1783 ft 184 kts 227°
2026-04-15 15:46 53.32943 -2.32576 2587 ft 196 kts 227°
2026-04-15 15:46 53.32283 -2.34601 3269 ft 210 kts 256°
2026-04-15 15:47 53.32292 -2.37211 4046 ft 236 kts 267°
2026-04-15 15:47 53.32389 -2.40036 4872 ft 253 kts 267°
2026-04-15 15:47 53.32464 -2.42944 4978 ft 247 kts 264°
2026-04-15 15:47 53.32157 -2.45707 4997 ft 241 kts 250°
2026-04-15 15:48 53.31671 -2.48345 5006 ft 239 kts 244°
2026-04-15 15:48 53.30711 -2.50633 5305 ft 251 kts 219°
2026-04-15 15:48 53.29197 -2.51992 6519 ft 245 kts 201°
2026-04-15 15:48 53.27596 -2.52971 7714 ft 245 kts 201°
2026-04-15 15:49 53.25983 -2.53939 8850 ft 248 kts 200°
2026-04-15 15:49 53.24349 -2.54910 9949 ft 251 kts 200°
2026-04-15 15:49 53.22661 -2.55909 10711 ft 268 kts 200°
2026-04-15 15:49 53.20823 -2.56994 11166 ft 293 kts 200°
2026-04-15 15:50 53.18825 -2.58166 11587 ft 317 kts 200°
2026-04-15 15:50 53.16657 -2.59431 11936 ft 341 kts 200°
2026-04-15 15:50 53.14360 -2.60768 12526 ft 355 kts 199°
2026-04-15 15:50 53.12010 -2.62135 13430 ft 360 kts 199°
2026-04-15 15:51 53.09628 -2.63519 14313 ft 365 kts 199°
2026-04-15 15:51 53.07213 -2.64922 15154 ft 370 kts 199°
2026-04-15 15:51 53.04768 -2.66341 16030 ft 374 kts 198°
2026-04-15 15:51 53.02298 -2.67777 16902 ft 378 kts 198°
2026-04-15 15:52 52.99795 -2.69231 17758 ft 383 kts 198°
2026-04-15 15:52 52.97265 -2.70702 18532 ft 387 kts 198°
2026-04-15 15:52 52.94739 -2.72171 19316 ft 391 kts 198°
2026-04-15 15:52 52.92158 -2.73668 20118 ft 395 kts 198°
2026-04-15 15:53 52.89549 -2.75175 20995 ft 399 kts 198°
2026-04-15 15:53 52.86910 -2.76694 21867 ft 404 kts 197°
2026-04-15 15:53 52.84243 -2.78225 22679 ft 408 kts 197°
2026-04-15 15:53 52.81528 -2.79498 23644 ft 404 kts 189°
2026-04-15 15:54 52.78751 -2.80007 24516 ft 400 kts 181°
2026-04-15 15:54 52.75975 -2.79731 25263 ft 399 kts 173°
2026-04-15 15:54 52.73234 -2.78982 25921 ft 398 kts 172°
2026-04-15 15:54 52.70496 -2.78237 26457 ft 399 kts 173°
2026-04-15 15:55 52.67753 -2.77503 26980 ft 399 kts 173°
2026-04-15 15:55 52.65014 -2.76777 27510 ft 399 kts 173°
2026-04-15 15:55 52.62279 -2.76076 28093 ft 397 kts 176°
2026-04-15 15:55 52.59532 -2.75921 28588 ft 394 kts 184°
2026-04-15 15:56 52.56791 -2.76176 29049 ft 393 kts 185°
2026-04-15 15:56 52.54061 -2.76424 29511 ft 393 kts 185°
2026-04-15 15:56 52.51337 -2.76665 29999 ft 392 kts 185°
2026-04-15 15:56 52.48645 -2.76895 30361 ft 392 kts 185°
2026-04-15 15:57 52.45921 -2.77121 30706 ft 392 kts 186°
2026-04-15 15:57 52.43189 -2.77348 31062 ft 393 kts 186°
2026-04-15 15:57 52.40458 -2.77576 31409 ft 394 kts 186°
2026-04-15 15:57 52.37723 -2.77811 31742 ft 394 kts 186°
2026-04-15 15:58 52.34985 -2.78049 32096 ft 395 kts 186°
2026-04-15 15:58 52.32230 -2.78287 32460 ft 395 kts 186°
2026-04-15 15:58 52.29481 -2.78523 32819 ft 396 kts 186°
2026-04-15 15:58 52.26724 -2.78762 33174 ft 396 kts 186°
2026-04-15 15:59 52.23971 -2.79000 33537 ft 397 kts 187°
2026-04-15 15:59 52.21214 -2.79238 33881 ft 398 kts 187°
2026-04-15 15:59 52.18432 -2.79481 33998 ft 403 kts 187°
2026-04-15 15:59 52.15612 -2.79726 34111 ft 409 kts 187°
2026-04-15 16:00 52.12755 -2.79973 34236 ft 414 kts 187°
2026-04-15 16:00 52.09860 -2.80223 34350 ft 418 kts 187°
2026-04-15 16:00 52.06969 -2.80470 34480 ft 423 kts 187°
2026-04-15 16:00 52.04024 -2.80717 34699 ft 425 kts 187°
2026-04-15 16:01 52.01067 -2.80962 34971 ft 426 kts 187°
2026-04-15 16:01 51.98112 -2.81207 35271 ft 426 kts 187°
2026-04-15 16:01 51.95155 -2.81455 35542 ft 426 kts 187°
2026-04-15 16:01 51.92191 -2.81705 35796 ft 427 kts 187°
2026-04-15 16:02 51.86246 -2.82211 35904 ft 428 kts 187°
2026-04-15 16:02 51.81287 -2.82926 35895 ft 426 kts 191°
2026-04-15 16:03 51.75462 -2.84261 35886 ft 426 kts 192°
2026-04-15 16:03 51.69599 -2.85682 35892 ft 426 kts 192°
2026-04-15 16:04 51.63717 -2.86981 35896 ft 427 kts 191°
2026-04-15 16:04 51.57823 -2.88217 35911 ft 427 kts 191°
2026-04-15 16:05 51.51929 -2.89446 35927 ft 427 kts 192°
2026-04-15 16:05 51.46026 -2.90690 35932 ft 428 kts 192°
2026-04-15 16:06 51.40113 -2.91933 35962 ft 428 kts 192°
2026-04-15 16:06 51.34202 -2.93180 35966 ft 428 kts 192°
2026-04-15 16:07 51.28291 -2.94420 35940 ft 428 kts 192°
2026-04-15 16:08 51.19451 -2.96272 35954 ft 429 kts 192°
2026-04-15 16:08 51.13531 -2.97510 35961 ft 429 kts 192°
2026-04-15 16:09 51.07604 -2.98743 35971 ft 429 kts 192°
2026-04-15 16:09 51.01686 -2.99967 35985 ft 429 kts 192°
2026-04-15 16:10 50.95764 -3.01193 35981 ft 429 kts 192°
2026-04-15 16:10 50.89852 -3.02417 35996 ft 429 kts 192°
2026-04-15 16:11 50.83933 -3.03643 35998 ft 429 kts 192°
2026-04-15 16:11 50.78014 -3.04863 35974 ft 429 kts 192°
2026-04-15 16:12 50.72084 -3.06076 35985 ft 430 kts 192°
2026-04-15 16:12 50.66144 -3.07291 35986 ft 430 kts 192°
2026-04-15 16:13 50.60249 -3.08495 35966 ft 430 kts 192°
2026-04-15 16:13 50.54310 -3.09706 36003 ft 430 kts 192°
2026-04-15 16:14 50.48369 -3.10899 36016 ft 430 kts 192°
2026-04-15 16:14 50.42427 -3.12094 36027 ft 430 kts 192°
2026-04-15 16:15 50.36555 -3.13647 36009 ft 424 kts 202°
2026-04-15 16:15 50.31113 -3.16997 36022 ft 420 kts 206°
2026-04-15 16:16 50.25692 -3.20447 36038 ft 420 kts 206°
2026-04-15 16:16 50.20264 -3.23870 36043 ft 421 kts 206°
2026-04-15 16:17 50.14847 -3.27274 36019 ft 423 kts 206°
2026-04-15 16:17 50.09356 -3.30732 36013 ft 423 kts 207°
2026-04-15 16:18 50.03923 -3.34151 36025 ft 424 kts 207°
2026-04-15 16:18 49.98447 -3.37573 36043 ft 424 kts 206°
2026-04-15 16:19 49.92963 -3.40991 36050 ft 424 kts 206°
2026-04-15 16:19 49.87485 -3.44409 36046 ft 424 kts 207°
2026-04-15 16:20 49.82004 -3.47814 36070 ft 424 kts 207°
2026-04-15 16:20 49.76521 -3.51189 36067 ft 425 kts 204°
2026-04-15 16:21 49.70655 -3.52738 36070 ft 441 kts 185°
2026-04-15 16:21 49.64497 -3.52278 36053 ft 443 kts 184°
2026-04-15 16:22 49.58338 -3.51808 36058 ft 443 kts 185°
2026-04-15 16:22 49.52171 -3.51362 36069 ft 444 kts 185°
2026-04-15 16:23 49.46002 -3.50915 36056 ft 444 kts 185°
2026-04-15 16:23 49.39826 -3.50463 36073 ft 444 kts 185°
2026-04-15 16:24 49.33653 -3.50011 36087 ft 444 kts 185°
2026-04-15 16:24 49.27480 -3.49556 36096 ft 444 kts 185°
2026-04-15 16:25 49.21303 -3.49107 36067 ft 444 kts 185°
2026-04-15 16:25 49.15131 -3.48657 36089 ft 444 kts 185°
2026-04-15 16:26 49.08953 -3.48202 36103 ft 444 kts 185°
2026-04-15 16:26 49.02822 -3.47762 36090 ft 444 kts 185°
2026-04-15 16:27 48.96661 -3.47322 36111 ft 442 kts 185°
2026-04-15 16:27 48.90507 -3.46877 36125 ft 441 kts 185°
2026-04-15 16:28 48.84374 -3.46436 36131 ft 441 kts 185°
2026-04-15 16:28 48.78244 -3.45992 36130 ft 440 kts 185°
2026-04-15 16:29 48.72124 -3.45554 36127 ft 440 kts 185°
2026-04-15 16:29 48.66006 -3.45121 36125 ft 440 kts 185°
2026-04-15 16:30 48.59892 -3.44696 36078 ft 440 kts 185°
2026-04-15 16:30 48.53780 -3.44271 36092 ft 440 kts 185°
2026-04-15 16:31 48.47660 -3.43831 36108 ft 440 kts 185°
2026-04-15 16:31 48.41578 -3.43391 36121 ft 440 kts 185°
2026-04-15 16:32 48.35454 -3.42958 36087 ft 440 kts 185°
2026-04-15 16:32 48.29329 -3.42536 36110 ft 441 kts 186°
2026-04-15 16:33 48.23201 -3.42115 36132 ft 441 kts 185°
2026-04-15 16:33 48.17062 -3.41687 36119 ft 441 kts 186°
2026-04-15 16:34 48.10921 -3.41266 36123 ft 442 kts 186°
2026-04-15 16:34 48.04773 -3.40830 36133 ft 443 kts 186°
2026-04-15 16:35 47.98616 -3.40398 36141 ft 443 kts 186°
2026-04-15 16:35 47.92455 -3.39974 36122 ft 443 kts 186°
2026-04-15 16:36 47.86287 -3.39552 36142 ft 444 kts 186°
2026-04-15 16:36 47.80118 -3.39132 36185 ft 444 kts 186°
2026-04-15 16:37 47.73952 -3.38704 36161 ft 444 kts 185°
2026-04-15 16:37 47.67774 -3.38270 36179 ft 444 kts 185°
2026-04-15 16:38 47.61647 -3.37847 36182 ft 444 kts 185°
2026-04-15 16:38 47.55480 -3.37426 36182 ft 443 kts 185°
2026-04-15 16:39 47.49316 -3.37018 36156 ft 443 kts 185°
2026-04-15 16:39 47.43154 -3.36604 36168 ft 443 kts 185°
2026-04-15 16:40 47.36983 -3.36177 36178 ft 443 kts 185°
2026-04-15 16:40 47.30822 -3.35749 36152 ft 443 kts 185°
2026-04-15 16:41 47.24651 -3.35335 36167 ft 443 kts 185°
2026-04-15 16:41 47.18488 -3.34928 36177 ft 443 kts 185°
2026-04-15 16:42 47.12319 -3.34514 36169 ft 443 kts 185°
2026-04-15 16:42 47.06152 -3.34101 36181 ft 444 kts 185°
2026-04-15 16:43 47.00023 -3.33697 36191 ft 444 kts 185°
2026-04-15 16:43 46.93851 -3.33283 36197 ft 444 kts 185°
2026-04-15 16:44 46.87665 -3.32874 36174 ft 447 kts 185°
2026-04-15 16:44 46.81433 -3.32464 36187 ft 448 kts 185°
2026-04-15 16:45 46.75197 -3.32040 36199 ft 448 kts 184°
2026-04-15 16:45 46.68971 -3.31618 36204 ft 448 kts 185°
2026-04-15 16:46 46.62739 -3.31218 36204 ft 448 kts 185°
2026-04-15 16:46 46.56551 -3.30824 36212 ft 448 kts 185°
2026-04-15 16:47 46.50317 -3.30415 36197 ft 448 kts 184°
2026-04-15 16:47 46.44079 -3.30000 36210 ft 449 kts 184°
2026-04-15 16:48 46.37837 -3.29580 36215 ft 449 kts 184°
2026-04-15 16:48 46.31588 -3.29172 36200 ft 449 kts 184°
2026-04-15 16:49 46.26391 -3.28830 36211 ft 450 kts 184°
2026-04-15 16:49 46.20133 -3.28431 36221 ft 450 kts 184°
2026-04-15 16:50 46.13879 -3.28024 36227 ft 450 kts 184°
2026-04-15 16:50 46.07620 -3.27625 36208 ft 450 kts 184°
2026-04-15 16:51 46.01357 -3.27230 36213 ft 450 kts 184°
2026-04-15 16:51 45.95090 -3.26821 36223 ft 450 kts 184°
2026-04-15 16:52 45.88821 -3.26419 36213 ft 451 kts 184°
2026-04-15 16:52 45.82555 -3.26015 36219 ft 451 kts 184°
2026-04-15 16:53 45.76274 -3.25611 36230 ft 452 kts 184°
2026-04-15 16:53 45.69987 -3.25212 36213 ft 452 kts 184°
2026-04-15 16:54 45.63734 -3.24816 36230 ft 453 kts 184°
2026-04-15 16:54 45.57419 -3.24415 36241 ft 454 kts 184°
2026-04-15 16:55 45.51110 -3.24022 36233 ft 454 kts 184°
2026-04-15 16:55 45.44799 -3.23624 36234 ft 454 kts 184°
2026-04-15 16:56 45.38481 -3.23224 36248 ft 454 kts 184°
2026-04-15 16:56 45.32161 -3.22825 36232 ft 454 kts 184°
2026-04-15 16:57 45.25840 -3.22415 36238 ft 455 kts 184°
2026-04-15 16:57 45.19514 -3.22023 36246 ft 455 kts 184°
2026-04-15 16:58 45.13187 -3.21642 36234 ft 455 kts 184°
2026-04-15 16:58 45.06850 -3.21247 36247 ft 456 kts 184°
2026-04-15 16:59 45.00519 -3.20847 36259 ft 456 kts 184°
2026-04-15 16:59 44.94177 -3.20450 36246 ft 456 kts 184°
2026-04-15 17:00 44.87836 -3.20065 36253 ft 456 kts 184°
2026-04-15 17:00 44.81530 -3.19678 36262 ft 456 kts 184°
2026-04-15 17:01 44.75190 -3.19283 36270 ft 456 kts 184°
2026-04-15 17:01 44.68844 -3.18889 36272 ft 456 kts 184°
2026-04-15 17:02 44.62498 -3.18508 36273 ft 456 kts 184°
2026-04-15 17:02 44.56142 -3.18130 36253 ft 456 kts 184°
2026-04-15 17:03 44.49787 -3.17746 36258 ft 456 kts 184°
2026-04-15 17:03 44.43443 -3.17355 36262 ft 457 kts 184°
2026-04-15 17:04 44.37088 -3.16958 36248 ft 457 kts 184°
2026-04-15 17:04 44.30779 -3.16578 36252 ft 457 kts 184°
2026-04-15 17:05 44.24424 -3.16200 36258 ft 457 kts 184°
2026-04-15 17:05 44.18065 -3.15811 36241 ft 457 kts 184°
2026-04-15 17:06 44.11700 -3.15421 36248 ft 458 kts 184°
2026-04-15 17:06 44.05374 -3.13665 36257 ft 474 kts 165°
2026-04-15 17:06 44.02390 -3.11640 36254 ft 483 kts 154°
2026-04-15 17:07 43.99648 -3.08877 36249 ft 490 kts 146°
2026-04-15 17:07 43.94373 -3.02874 36223 ft 491 kts 146°
2026-04-15 17:08 43.89067 -2.96906 36237 ft 491 kts 146°
2026-04-15 17:08 43.83735 -2.90954 36241 ft 491 kts 146°
2026-04-15 17:09 43.78448 -2.85047 36233 ft 492 kts 146°
2026-04-15 17:09 43.75775 -2.82059 35688 ft 497 kts 146°
2026-04-15 17:09 43.73056 -2.79030 34883 ft 500 kts 146°
2026-04-15 17:09 43.70366 -2.76025 34413 ft 495 kts 146°
2026-04-15 17:10 43.67696 -2.73041 33739 ft 493 kts 146°
2026-04-15 17:10 43.65029 -2.70069 32945 ft 493 kts 146°
2026-04-15 17:10 43.62349 -2.67090 32074 ft 494 kts 146°
2026-04-15 17:10 43.59658 -2.64110 31207 ft 496 kts 145°
2026-04-15 17:11 43.56960 -2.61131 30287 ft 498 kts 145°
2026-04-15 17:11 43.54246 -2.58135 29219 ft 500 kts 145°
2026-04-15 17:11 43.51559 -2.55166 28161 ft 502 kts 144°
2026-04-15 17:12 43.46093 -2.49125 25964 ft 505 kts 144°
2026-04-15 17:12 43.43347 -2.46094 24852 ft 507 kts 144°
2026-04-15 17:12 43.40587 -2.43053 23982 ft 504 kts 144°
2026-04-15 17:12 43.37873 -2.40063 23096 ft 497 kts 144°
2026-04-15 17:13 43.35189 -2.37115 22172 ft 491 kts 144°
2026-04-15 17:13 43.32529 -2.34196 21387 ft 486 kts 144°
2026-04-15 17:13 43.29883 -2.31298 21120 ft 488 kts 144°
2026-04-15 17:13 43.27402 -2.28133 20762 ft 490 kts 133°
2026-04-15 17:14 43.25496 -2.24289 19668 ft 485 kts 120°
2026-04-15 17:14 43.23765 -2.20357 18638 ft 477 kts 130°
2026-04-15 17:14 43.21434 -2.17210 17575 ft 465 kts 147°
2026-04-15 17:14 43.18666 -2.15034 16600 ft 455 kts 156°
2026-04-15 17:15 43.15827 -2.13127 15741 ft 453 kts 157°
2026-04-15 17:15 43.13023 -2.11266 14844 ft 445 kts 157°
2026-04-15 17:15 43.10293 -2.09466 13981 ft 437 kts 157°
2026-04-15 17:15 43.07611 -2.07536 13006 ft 433 kts 150°
2026-04-15 17:16 43.05208 -2.05106 12069 ft 428 kts 137°
2026-04-15 17:16 43.03339 -2.01981 11158 ft 421 kts 121°
2026-04-15 17:16 43.02175 -1.98354 10269 ft 414 kts 104°
2026-04-15 17:16 43.01791 -1.94511 9315 ft 405 kts 88°
2026-04-15 17:17 43.02179 -1.90783 8371 ft 387 kts 71°
2026-04-15 17:17 43.03228 -1.87522 7459 ft 365 kts 55°
2026-04-15 17:17 43.04774 -1.84888 6564 ft 348 kts 40°
2026-04-15 17:17 43.06653 -1.82983 5922 ft 326 kts 28°
2026-04-15 17:18 43.08666 -1.81784 5406 ft 306 kts 16°
2026-04-15 17:18 43.10677 -1.81252 5221 ft 280 kts
2026-04-15 17:18 43.12530 -1.81270 5211 ft 254 kts 354°
2026-04-15 17:18 43.14186 -1.81700 5203 ft 230 kts 345°
2026-04-15 17:19 43.15678 -1.82461 5219 ft 231 kts 336°
2026-04-15 17:19 43.17076 -1.83558 5229 ft 232 kts 327°
2026-04-15 17:19 43.18347 -1.84979 4881 ft 239 kts 318°
2026-04-15 17:19 43.19437 -1.86621 4565 ft 232 kts 315°
2026-04-15 17:20 43.20509 -1.88270 4061 ft 232 kts 314°
2026-04-15 17:20 43.21585 -1.89921 3579 ft 230 kts 315°
2026-04-15 17:20 43.22658 -1.91562 3500 ft 227 kts 314°
2026-04-15 17:20 43.23746 -1.92957 3432 ft 203 kts 336°
2026-04-15 17:21 43.25071 -1.93120 3389 ft 195 kts 20°
2026-04-15 17:21 43.26086 -1.91933 3071 ft 197 kts 58°
2026-04-15 17:21 43.26640 -1.90272 3016 ft 181 kts 67°
2026-04-15 17:21 43.27130 -1.88745 2692 ft 174 kts 53°
2026-04-15 17:22 43.27969 -1.87521 2095 ft 175 kts 40°
2026-04-15 17:22 43.28889 -1.86547 2039 ft 163 kts 34°
2026-04-15 17:22 43.29778 -1.85605 1870 ft 159 kts 38°
2026-04-15 17:22 43.30621 -1.84627 1595 ft 158 kts 40°
2026-04-15 17:23 43.31455 -1.83641 1231 ft 158 kts 40°
2026-04-15 17:23 43.32310 -1.82736 838 ft 157 kts 38°
2026-04-15 17:23 43.33158 -1.81805 580 ft 156 kts 37°
2026-04-15 17:23 43.33983 -1.80895 362 ft 147 kts 38°
2026-04-15 17:24 43.34759 -1.80032 125 ft 142 kts 37°
2026-04-15 17:24 43.35522 -1.79204 17 ft 128 kts 38°
2026-04-15 17:24 43.35842 -1.78851 23 ft 0 kts 37°